Home > Weather > Horsham > Past weeks

Flag for United Kingdom Past Weather in Horsham, England, United Kingdom — Yesterday and Last 2 Weeks

Now
54 °F

Sunny.


Feels Like: 51 °F
Forecast: 49 / 68 °F
Wind: 8 mph from East

Location: London / Gatwick Airport

Current Time: May 27, 2016 at 7:45:34 AM

Latest Report: May 27, 2016 at 7:20 AM


Visibility: 10 mi

Pressure: 30.01 "Hg

Humidity: 82%

Dew Point: 48 °F

Location of HorshamLocation

Past Weather in Horsham — Graph

°F

Horsham Temperature Yesterday

Maximum temperature yesterday: 66 °F (at 1:20 PM)
Minimum temperature yesterday: 37 °F (at 4:50 AM)
Average temperature yesterday: 54 °F

High & Low Weather Summary for the Past Weeks

 TemperatureHumidityPressure
High72 °F (May 12, 2:20 PM)100% (May 15, 3:50 AM)30.21 "Hg (May 15, 3:50 AM)
Low36 °F (May 15, 3:50 AM)37% (May 15, 4:20 PM)29.56 "Hg (May 12, 6:20 AM)
Average55 °F76%29.95 "Hg
* Reported May 12 6:20 AM — May 27 6:50 AM, Horsham, Weather by CustomWeather, © 2016

Note: Actual official high and low records may vary slightly from our data, if they occured in-between our weather recording intervals... More about our weather records

Advertising

Horsham Weather History for the Previous 24 Hours

Scroll right to see more
 ConditionsComfort  
Time TempWeatherWind HumidityBarometerVisibility
6:50 AM
Fri, May 27
54 °FSunny.No wind82%30.04 "Hg10 mi
6:20 AM52 °FPassing clouds.6 mph88%30.01 "HgN/A
5:50 AM52 °FPassing clouds.6 mph88%30.01 "HgN/A
5:20 AM52 °FLight rain. Clear.6 mph88%30.01 "HgN/A
4:50 AM52 °FScattered showers. Clear.7 mph88%30.01 "HgN/A
4:20 AM52 °FLight rain. Clear.2 mph88%30.01 "HgN/A
3:50 AM52 °FClear.6 mph88%30.01 "Hg10 mi
3:20 AM50 °FClear.3 mph94%30.01 "Hg4 mi
2:50 AM52 °FClear.3 mph88%30.01 "Hg4 mi
2:20 AM50 °FClear.2 mph94%30.01 "Hg5 mi
1:50 AM50 °FClear.5 mph88%30.01 "Hg6 mi
1:20 AM50 °FClear.6 mph94%30.01 "Hg6 mi
12:50 AM52 °FClear.9 mph88%30.01 "Hg10 mi
12:20 AM52 °FClear.8 mph88%30.01 "Hg10 mi
11:50 PM
Thu, May 26
54 °FClear.7 mph82%30.01 "Hg10 mi
11:20 PM54 °FClear.7 mph88%30.01 "Hg10 mi
10:50 PM55 °FClear.8 mph82%30.01 "Hg10 mi
10:20 PM57 °FClear.8 mph77%30.01 "Hg10 mi
9:50 PM57 °FSunny.7 mph77%29.98 "Hg10 mi
9:20 PM59 °FSunny.3 mph72%29.98 "Hg10 mi
8:50 PM59 °FSunny.5 mph72%29.98 "Hg10 mi
8:20 PM61 °FSunny.5 mph68%29.98 "Hg10 mi
7:50 PM63 °FScattered clouds.7 mph64%29.98 "HgN/A
7:20 PM64 °FPassing clouds.6 mph64%29.98 "HgN/A
6:50 PM64 °FPassing clouds.7 mph56%29.98 "HgN/A
6:20 PM66 °FSunny.5 mph56%29.98 "Hg10 mi
5:50 PM64 °FPassing clouds.7 mph60%29.98 "HgN/A
5:20 PM66 °FPassing clouds.6 mph52%29.98 "HgN/A
4:50 PM66 °FSunny.3 mph56%29.98 "Hg10 mi
4:20 PM66 °FPassing clouds.6 mph52%29.98 "HgN/A
3:50 PM66 °FSunny.3 mph56%29.98 "Hg10 mi
3:20 PM64 °FPassing clouds.5 mph56%29.98 "HgN/A
2:50 PM66 °FScattered clouds.3 mph52%29.98 "HgN/A
2:20 PM64 °FScattered clouds.3 mph56%29.98 "HgN/A
1:50 PM64 °FScattered clouds.3 mph56%29.98 "HgN/A
1:20 PM66 °FScattered clouds.6 mph56%30.01 "HgN/A
12:50 PM64 °FScattered clouds.3 mph56%30.01 "HgN/A
12:20 PM64 °FScattered clouds.3 mph60%30.01 "HgN/A
11:50 AM61 °FScattered clouds.5 mph63%30.01 "HgN/A
11:20 AM61 °FScattered clouds.3 mph63%30.01 "HgN/A
10:50 AM59 °FPassing clouds.3 mph68%30.01 "HgN/A
10:20 AM59 °FPassing clouds.2 mph68%30.01 "HgN/A
9:50 AM57 °FPassing clouds.3 mph72%30.01 "HgN/A
9:20 AM55 °FScattered clouds.5 mph77%30.01 "HgN/A
8:50 AM54 °FScattered clouds.5 mph82%30.04 "Hg5 mi
8:20 AM52 °FFog.3 mph88%30.04 "Hg3 mi
7:50 AM48 °FFog.No wind94%30.04 "Hg2 mi
7:20 AM45 °FPartly sunny.No wind100%30.04 "Hg1 mi
Weather by CustomWeather, © 2016

See weather overviewHow to use our weather pages